OneWeb SL0718

operational
NORAD ID: 56081 Int'l Des: 2023-043 Owner: ONEWEBN Country: UK Constellation: oneweb
LEOCIRCULARPOLARONEWEB_TYPE

OneWeb SL0718について

説明を読み込み中...

リアルタイム位置

3D地球を読み込み中...

次回通過

高度履歴

Altitude vs Time

uPlot chart will show altitude changes over time

軌道要素

1 56081U 23043AM 26033.41809163 -.00000091 00000-0 -27617-3 0 9996
2 56081 87.8987 286.1124 0001800 95.1532 264.9804 13.15549171138717
Epoch: Feb 2, 2026 • Age: 21 hours

現在のステータス

高度 1230.5 km
速度 7.24 km/s
衛星直下点 -75.60°S, 130.52°W
打ち上げ日 Mar 26, 2023
運用期間 2.8 years
タイプ internet

技術仕様

分類 Payload
質量 148.00 kg
乾燥質量 140.00 kg
総質量 148.00 kg
長さ 1.30 m
直径 1.00 m
スパン 5.00 m
形状 Trapezoid+2 pan
製造者 ONEWUS
バスタイプ ARROW
フェーズステータス In Orbit
所有者/国 ONEWEBN/UK

大規模コンステレーション

Loading constellations...